Tracy, MN

8:28 PM CDT on April 26, 2018 (GMT -0500)
Tracy

Weather History for KTKC - April, 2012

Change the Weather History Date:

Monday, April 2, 2012

  Actual Average (KMML) Record (KMML)
Temperature  
Mean Temperature 64 °F -  
Max Temperature 76 °F 48 °F 81 °F (1963)
Min Temperature 52 °F 28 °F 10 °F (1975)
Degree Days  
Heating Degree Days 1    
Growing Degree Days 14 (Base 50)    
Moisture  
Dew Point 52 °F    
Average Humidity 77    
Maximum Humidity 94    
Minimum Humidity 53    
Precipitation  
Precipitation 0.00 in - - ()
Sea Level Pressure  
Sea Level Pressure 29.60 in    
Wind  
Wind Speed 17 mph (SE)    
Max Wind Speed 23 mph    
Max Gust Speed 30 mph    
Visibility 6 miles    
Events      
Averages and records for this station are not official NWS values.
T = Trace of Precipitation, MM = Missing Value Source: NWS Daily Summary

Daily Weather History Graph

Daily Weather History Graph

Search for Another Location

Airport or City:

Astronomy

Apr. 02, 2012 Rise Set
Actual Time 7:00 AM CDT 7:51 PM CDT
Civil Twilight 6:31 AM CDT 8:20 PM CDT
Nautical Twilight 5:56 AM CDT 8:55 PM CDT
Astronomical Twilight 5:20 AM CDT 9:32 PM CDT
Moon 3:19 PM CDT (4/2) 4:24 AM CDT (4/2)
Length of Visible Light 13h 49m
Length of Day
12h 50m
Waxing Gibbous, 78% of the Moon is Illuminated
Apr 2
Waxing Gibbous
Apr 6
Full
Apr 13
Last Quarter
Apr 21
New
Apr 29
First Quarter

Hourly Weather History & Observations

Time (CDT) Temp. Dew Point Humidity Pressure Visibility Wind Dir Wind Speed Gust Speed Precip Events Conditions
12:13 AM 58.5 °F 54.0 °F 85% 29.51 in 5.0 mi SE 20.7 mph 26.5 mph N/A   Haze
12:32 AM 57.9 °F 53.6 °F 86% 29.50 in 5.0 mi SE 17.3 mph 24.2 mph N/A   Clear
12:53 AM 57.2 °F 53.4 °F 87% 29.51 in 5.0 mi SE 15.0 mph 20.7 mph N/A   Scattered Clouds
1:13 AM 56.3 °F 53.1 °F 89% 29.51 in 5.0 mi SE 16.1 mph - N/A   Mostly Cloudy
1:33 AM 56.5 °F 53.1 °F 88% 29.52 in 5.0 mi SE 17.3 mph - N/A   Overcast
1:53 AM 56.7 °F 53.2 °F 88% 29.52 in 5.0 mi SE 20.7 mph 24.2 mph N/A   Overcast
2:13 AM 56.5 °F 53.2 °F 89% 29.52 in 4.0 mi SE 19.6 mph 24.2 mph N/A   Overcast
2:33 AM 56.3 °F 53.4 °F 90% 29.52 in 4.0 mi SE 18.4 mph - N/A   Overcast
2:54 AM 56.3 °F 53.2 °F 89% 29.52 in 4.0 mi SE 16.1 mph 25.3 mph N/A   Overcast
3:13 AM 55.9 °F 53.1 °F 90% 29.51 in 4.0 mi SE 18.4 mph 26.5 mph N/A   Overcast
3:33 AM 55.8 °F 53.1 °F 91% 29.52 in 3.0 mi SE 19.6 mph 23.0 mph N/A   Overcast
3:53 AM 55.6 °F 52.9 °F 91% 29.52 in 3.0 mi SE 16.1 mph 21.9 mph N/A   Overcast
4:13 AM 55.4 °F 52.7 °F 91% 29.52 in 4.0 mi SE 17.3 mph 24.2 mph N/A   Overcast
4:33 AM 55.2 °F 52.2 °F 89% 29.53 in 4.0 mi SE 16.1 mph - N/A   Overcast
4:53 AM 55.0 °F 52.0 °F 89% 29.53 in 4.0 mi SE 16.1 mph 21.9 mph N/A   Overcast
5:13 AM 54.7 °F 51.8 °F 90% 29.53 in 4.0 mi SE 17.3 mph 25.3 mph N/A   Overcast
5:33 AM 54.5 °F 51.4 °F 89% 29.53 in 4.0 mi SE 18.4 mph 25.3 mph N/A   Overcast
5:53 AM 53.8 °F 51.3 °F 91% 29.54 in 3.0 mi SE 16.1 mph 27.6 mph N/A   Overcast
6:13 AM 53.6 °F 51.3 °F 92% 29.55 in 3.0 mi SE 15.0 mph 26.5 mph N/A   Overcast
6:33 AM 53.6 °F 51.3 °F 92% 29.56 in 3.0 mi SE 17.3 mph 25.3 mph N/A   Overcast
6:53 AM 53.6 °F 51.8 °F 94% 29.56 in 2.5 mi SE 17.3 mph 26.5 mph N/A   Overcast
7:13 AM 53.6 °F 51.8 °F 94% 29.57 in 2.5 mi SE 16.1 mph 25.3 mph N/A   Overcast
7:33 AM 53.6 °F 51.8 °F 94% 29.57 in 2.5 mi SE 17.3 mph 27.6 mph N/A   Overcast
7:53 AM 53.6 °F 51.8 °F 94% 29.59 in 2.0 mi SSE 17.3 mph 23.0 mph N/A   Overcast
8:13 AM 53.6 °F 51.6 °F 93% 29.60 in 2.0 mi SE 12.7 mph 19.6 mph N/A   Overcast
8:33 AM 53.4 °F 51.1 °F 92% 29.60 in 2.0 mi SSE 21.9 mph 29.9 mph N/A   Overcast
8:53 AM 53.1 °F 50.9 °F 92% 29.60 in 1.8 mi SE 18.4 mph 29.9 mph N/A   Overcast
9:13 AM 52.2 °F 50.2 °F 93% 29.60 in 1.8 mi SE 17.3 mph 23.0 mph N/A   Overcast
9:33 AM 52.2 °F 50.4 °F 94% 29.60 in 1.5 mi SE 19.6 mph 25.3 mph N/A   Overcast
9:53 AM 52.7 °F 50.7 °F 93% 29.62 in 2.0 mi SE 15.0 mph 24.2 mph N/A   Overcast
10:13 AM 52.7 °F 50.4 °F 92% 29.62 in 2.0 mi SE 18.4 mph 24.2 mph N/A   Overcast
10:33 AM 52.7 °F 50.2 °F 91% 29.62 in 2.5 mi SE 19.6 mph 23.0 mph N/A   Overcast
10:53 AM 53.1 °F 50.2 °F 90% 29.62 in 2.5 mi SE 18.4 mph 27.6 mph N/A   Overcast
11:14 AM 54.3 °F 50.5 °F 87% 29.62 in 4.0 mi SE 19.6 mph 23.0 mph N/A   Overcast
11:33 AM 55.4 °F 51.3 °F 86% 29.63 in 4.0 mi SE 13.8 mph 21.9 mph N/A   Overcast
11:53 AM 56.3 °F 51.6 °F 84% 29.64 in 4.0 mi SE 18.4 mph 24.2 mph N/A   Overcast
12:13 PM 57.6 °F 51.8 °F 81% 29.65 in 4.0 mi SE 15.0 mph - N/A   Haze
12:33 PM 59.2 °F 52.7 °F 79% 29.64 in 5.0 mi SE 15.0 mph 20.7 mph N/A   Haze
12:53 PM 61.5 °F 53.8 °F 76% 29.63 in 5.0 mi SE 20.7 mph 25.3 mph N/A   Haze
1:13 PM 64.6 °F 55.0 °F 71% 29.62 in 5.0 mi SSE 18.4 mph - N/A   Haze
1:33 PM 67.1 °F 55.6 °F 66% 29.62 in 7.0 mi SSE 13.8 mph 23.0 mph N/A   Scattered Clouds
1:53 PM 69.8 °F 56.5 °F 63% 29.62 in 7.0 mi SSE 12.7 mph 20.7 mph N/A   Clear
2:13 PM 70.9 °F 56.7 °F 61% 29.62 in 7.0 mi SSE 12.7 mph 21.9 mph N/A   Clear
2:33 PM 73.6 °F 57.4 °F 57% 29.62 in 7.0 mi SSE 16.1 mph - N/A   Scattered Clouds
2:53 PM 74.1 °F 57.6 °F 56% 29.62 in 10.0 mi SSE 10.4 mph 18.4 mph N/A   Mostly Cloudy
3:13 PM 75.2 °F 57.7 °F 54% 29.63 in 10.0 mi SSE 12.7 mph - N/A   Mostly Cloudy
3:33 PM 76.1 °F 58.1 °F 54% 29.63 in 10.0 mi South 10.4 mph - N/A   Mostly Cloudy
3:53 PM 75.7 °F 57.6 °F 53% 29.63 in 10.0 mi SE 5.8 mph - N/A   Overcast
4:13 PM 75.4 °F 57.6 °F 54% 29.63 in 10.0 mi East 5.8 mph - N/A   Overcast
4:33 PM 75.7 °F 57.9 °F 54% 29.63 in 10.0 mi East 3.5 mph - N/A   Overcast
4:54 PM 73.4 °F 56.3 °F 55% 29.64 in 10.0 mi North 13.8 mph 18.4 mph N/A   Overcast
5:13 PM 71.2 °F 56.1 °F 59% 29.63 in 10.0 mi North 15.0 mph - N/A   Overcast
5:33 PM 69.1 °F 54.9 °F 60% 29.64 in 10.0 mi North 17.3 mph 21.9 mph N/A   Overcast
5:53 PM 69.1 °F 54.3 °F 59% 29.65 in 10.0 mi North 16.1 mph 21.9 mph N/A   Scattered Clouds
6:13 PM 68.4 °F 53.6 °F 59% 29.65 in 10.0 mi North 18.4 mph 21.9 mph N/A   Scattered Clouds
6:53 PM 67.1 °F 51.8 °F 58% 29.66 in 10.0 mi North 15.0 mph 25.3 mph N/A   Scattered Clouds
7:13 PM 65.3 °F 50.7 °F 59% 29.68 in 10.0 mi North 18.4 mph 26.5 mph N/A   Scattered Clouds
7:33 PM 64.0 °F 49.1 °F 58% 29.69 in 10.0 mi North 21.9 mph 27.6 mph N/A   Clear
7:53 PM 62.6 °F 47.8 °F 58% 29.70 in 10.0 mi North 19.6 mph 25.3 mph N/A   Clear
8:13 PM 61.2 °F 46.9 °F 60% 29.72 in 10.0 mi North 18.4 mph 23.0 mph N/A   Clear
8:33 PM 59.9 °F 46.2 °F 61% 29.73 in 10.0 mi North 23.0 mph 28.8 mph N/A   Clear
8:53 PM 59.4 °F 45.1 °F 59% 29.74 in 10.0 mi North 21.9 mph 28.8 mph N/A   Clear
9:13 PM 58.3 °F 44.2 °F 60% 29.75 in 10.0 mi North 21.9 mph 29.9 mph N/A   Clear
9:33 PM 57.0 °F 44.6 °F 63% 29.76 in 10.0 mi NNW 15.0 mph 27.6 mph N/A   Scattered Clouds
9:53 PM 55.8 °F 44.6 °F 66% 29.77 in 10.0 mi NNW 19.6 mph 24.2 mph N/A   Mostly Cloudy
10:13 PM 55.2 °F 44.6 °F 67% 29.78 in 10.0 mi NNW 23.0 mph 27.6 mph N/A   Overcast
10:33 PM 54.5 °F 42.8 °F 65% 29.80 in 10.0 mi North 21.9 mph 29.9 mph N/A   Overcast
10:53 PM 53.4 °F 42.8 °F 67% 29.82 in 10.0 mi NNW 21.9 mph 31.1 mph N/A   Overcast
11:13 PM 52.3 °F 42.4 °F 69% 29.82 in 10.0 mi North 23.0 mph 32.2 mph N/A   Overcast
11:33 PM 52.3 °F 42.3 °F 69% 29.83 in 10.0 mi North 19.6 mph 31.1 mph N/A   Overcast
11:53 PM 52.2 °F 42.1 °F 69% 29.83 in 10.0 mi North 19.6 mph 28.8 mph N/A   Overcast